KG7QQL Weather Reports


Display with metric or nautical units.
time (UTC)temp
F
wind
direction
speed
MPH
gust
MPH
rain 1hr
in
rain 24hr
in
rain mn
in
humidity
%
barometer
mb
20260505181621 58 119 1.0 6.0 0.00 0.00 0.00 82
20260505181118 58 114 3.0 7.0 0.00 0.00 0.00 82
20260505180614 58 114 2.0 10.0 0.00 0.00 0.00 83
20260505180112 58 82 2.0 5.0 0.00 0.00 0.00 83
20260505175607 58 105 2.0 12.0 0.00 0.00 0.00 82
20260505175104 58 116 0.0 3.0 0.00 0.00 0.00 83
20260505174601 58 106 4.0 5.0 0.00 0.00 0.00 84
20260505174057 57 91 2.0 4.0 0.00 0.00 0.00 84
20260505173554 57 228 1.0 7.0 0.00 0.00 0.00 84
20260505173050 57 154 1.0 4.0 0.00 0.00 0.00 84
20260505172548 57 200 3.0 7.0 0.00 0.00 0.00 85
20260505172045 57 140 3.0 7.0 0.00 0.00 0.00 84
20260505171539 57 104 4.0 6.0 0.00 0.00 0.00 85
20260505171036 57 224 3.0 5.0 0.00 0.00 0.00 85
20260505170533 57 109 3.0 11.0 0.00 0.00 0.00 85
20260505170030 56 107 3.0 8.0 0.00 0.00 0.00 85
20260505165525 56 84 3.0 8.0 0.00 0.00 0.00 85
20260505165021 56 118 1.0 7.0 0.00 0.00 0.00 85
20260505164517 56 111 4.0 9.0 0.00 0.00 0.00 85
20260505164015 56 113 2.0 7.0 0.00 0.00 0.00 85
20260505163513 56 109 1.0 8.0 0.00 0.00 0.00 85
20260505163010 56 101 3.0 5.0 0.00 0.00 0.00 85
20260505162503 56 97 2.0 6.0 0.00 0.00 0.00 85
20260505162000 56 113 5.0 10.0 0.00 0.00 0.00 85
20260505161456 56 94 1.0 7.0 0.00 0.00 0.00 86
20260505160954 56 109 3.0 10.0 0.00 0.00 0.00 85
20260505160452 56 195 2.0 9.0 0.00 0.00 0.00 86
20260505152923 56 112 7.0 7.0 0.00 0.00 0.00 87
20260505152420 55 99 2.0 7.0 0.00 0.00 0.00 87
20260505151919 55 96 2.0 8.0 0.00 0.00 0.00 87
20260505151410 55 97 2.0 7.0 0.00 0.00 0.00 87
20260505150908 55 211 4.0 7.0 0.00 0.00 0.00 87
20260505150404 55 110 2.0 7.0 0.00 0.00 0.00 87
20260505140329 55 111 3.0 5.0 0.00 0.00 0.00 88
20260505130252 55 96 5.0 9.0 0.00 0.00 0.00 89
20260505124743 55 101 4.0 10.0 0.00 0.00 0.00 90
20260505124239 55 97 2.0 5.0 0.00 0.00 0.00 90
20260505123735 55 111 1.0 10.0 0.00 0.00 0.00 90
20260505123232 55 102 6.0 11.0 0.00 0.00 0.00 90
20260505122728 55 120 5.0 12.0 0.00 0.00 0.00 90
20260505122225 54 99 5.0 6.0 0.00 0.00 0.00 90
20260505121717 54 88 4.0 8.0 0.00 0.00 0.00 90
20260505121213 54 117 4.0 13.0 0.00 0.00 0.00 90
20260505120710 54 110 3.0 14.0 0.00 0.00 0.00 91
20260505120206 54 93 3.0 6.0 0.00 0.00 0.00 91
20260505115659 54 134 4.0 12.0 0.00 0.00 0.00 91
20260505115157 54 102 5.0 9.0 0.00 0.00 0.00 91
20260505114654 54 75 2.0 11.0 0.00 0.00 0.00 91
20260505114150 54 149 3.0 7.0 0.00 0.00 0.00 91
20260505113647 54 115 2.0 8.0 0.00 0.00 0.00 91
20260505113144 54 101 5.0 8.0 0.00 0.00 0.00 91
20260505112640 54 94 2.0 10.0 0.00 0.00 0.00 91
20260505112138 55 110 6.0 11.0 0.00 0.00 0.00 91
20260505111637 55 146 1.0 8.0 0.00 0.00 0.00 91
20260505111133 55 114 0.0 7.0 0.00 0.00 0.00 91
20260505110630 55 112 8.0 10.0 0.00 0.00 0.00 91
20260505110127 55 115 4.0 10.0 0.00 0.00 0.00 91
20260505102103 54 301 0.0 8.0 0.00 0.00 0.00 92
20260505101601 54 195 4.0 14.0 0.00 0.00 0.00 92
20260505101057 54 105 9.0 14.0 0.00 0.00 0.00 91
20260505100554 54 98 4.0 7.0 0.00 0.00 0.00 91
20260505100051 54 83 3.0 9.0 0.00 0.00 0.00 92
20260505095547 54 100 4.0 7.0 0.00 0.00 0.00 92
20260505095043 54 76 0.0 10.0 0.00 0.00 0.00 92
20260505094540 54 103 5.0 6.0 0.00 0.00 0.00 92
20260505094036 54 112 12.0 12.0 0.00 0.00 0.00 92
20260505093533 54 112 2.0 10.0 0.00 0.00 0.00 92
20260505093030 54 88 4.0 8.0 0.00 0.00 0.00 92
20260505092527 54 105 4.0 10.0 0.00 0.00 0.00 92
20260505092026 54 88 4.0 9.0 0.00 0.00 0.00 92
20260505091522 54 106 4.0 10.0 0.00 0.00 0.00 92
20260505091021 54 64 2.0 13.0 0.00 0.00 0.00 92
20260505090518 54 101 4.0 9.0 0.00 0.00 0.00 92
20260505090016 54 109 5.0 7.0 0.00 0.00 0.00 92
20260505085514 54 105 1.0 10.0 0.00 0.00 0.00 92
20260505085012 54 98 6.0 9.0 0.00 0.00 0.00 92
20260505084510 54 92 4.0 12.0 0.00 0.00 0.00 92
20260505084007 54 114 6.0 13.0 0.00 0.00 0.00 91
20260505083504 54 102 4.0 7.0 0.00 0.00 0.00 91
20260505083000 54 135 1.0 14.0 0.00 0.00 0.00 91
20260505082456 54 108 4.0 5.0 0.00 0.00 0.00 91
20260505081953 54 83 4.0 12.0 0.00 0.00 0.00 91
20260505081450 55 112 5.0 8.0 0.00 0.00 0.00 91
20260505080947 55 116 5.0 9.0 0.00 0.00 0.00 91
20260505080443 55 97 3.0 5.0 0.00 0.00 0.00 91
20260505075938 55 83 3.0 8.0 0.00 0.00 0.00 91
20260505075435 55 118 0.0 9.0 0.00 0.00 0.00 90
20260505074933 55 112 4.0 8.0 0.00 0.00 0.00 90
20260505074430 55 89 2.0 10.0 0.00 0.00 0.00 90
20260505073927 55 113 4.0 6.0 0.00 0.00 0.00 90
20260505073425 55 107 7.0 8.0 0.00 0.00 0.00 90
20260505072922 55 99 4.0 9.0 0.00 0.00 0.00 90
20260505072418 55 96 3.0 5.0 0.00 0.00 0.00 89
20260505071914 55 88 3.0 8.0 0.00 0.00 0.00 89
20260505071410 55 108 0.0 6.0 0.00 0.00 0.00 89
20260505070909 55 87 3.0 8.0 0.00 0.00 0.00 89
20260505070404 55 112 2.0 6.0 0.00 0.00 0.00 88
20260505065900 56 103 4.0 11.0 0.00 0.00 0.00 88
20260505065357 56 109 4.0 10.0 0.00 0.00 0.00 88
20260505064854 56 105 5.0 8.0 0.00 0.00 0.00 88
20260505064351 56 116 7.0 9.0 0.00 0.00 0.00 87
20260505063850 56 106 3.0 8.0 0.00 0.00 0.00 87
20260505063345 56 95 5.0 14.0 0.00 0.00 0.00 87
20260505062842 57 61 4.0 9.0 0.00 0.00 0.00 86
20260505062339 57 122 3.0 7.0 0.00 0.00 0.00 86
20260505061836 57 117 3.0 9.0 0.00 0.00 0.00 86
20260505061334 57 113 3.0 6.0 0.00 0.00 0.00 85
20260505060831 57 159 2.0 13.0 0.00 0.00 0.00 85
20260505060328 58 108 4.0 11.0 0.00 0.00 0.00 85
20260505055824 58 95 3.0 8.0 0.00 0.00 0.00 84
20260505055320 58 100 3.0 8.0 0.00 0.00 0.00 84
20260505054818 58 76 3.0 10.0 0.00 0.00 0.00 84
20260505054315 58 104 4.0 10.0 0.00 0.00 0.00 84
20260505053813 58 117 3.0 12.0 0.00 0.00 0.00 83
20260505053310 59 107 4.0 10.0 0.00 0.00 0.00 83
20260505052806 59 104 4.0 7.0 0.00 0.00 0.00 82
20260505052304 59 126 3.0 9.0 0.00 0.00 0.00 82
20260505051800 59 119 3.0 7.0 0.00 0.00 0.00 81
20260505051258 59 104 6.0 11.0 0.00 0.00 0.00 81
20260505050756 59 94 5.0 13.0 0.00 0.00 0.00 81
20260505050254 60 107 5.0 12.0 0.00 0.00 0.00 80
20260505041723 63 183 0.0 5.0 0.00 0.00 0.00 75
20260505041221 63 216 0.0 4.0 0.00 0.00 0.00 75
20260505040718 64 353 2.0 4.0 0.00 0.00 0.00 74
20260505040215 64 261 0.0 4.0 0.00 0.00 0.00 74
20260505035712 64 171 3.0 3.0 0.00 0.00 0.00 73
20260505035208 65 124 1.0 4.0 0.00 0.00 0.00 72
20260505034704 65 107 2.0 6.0 0.00 0.00 0.00 72
20260505034202 64 88 0.0 2.0 0.00 0.00 0.00 73
20260505033658 65 62 2.0 3.0 0.00 0.00 0.00 72
20260505033156 65 127 0.0 3.0 0.00 0.00 0.00 71
20260505032654 66 129 0.0 3.0 0.00 0.00 0.00 70
20260505032155 67 69 0.0 2.0 0.00 0.00 0.00 69
20260505031652 67 135 0.0 1.0 0.00 0.00 0.00 67
20260505031149 68 107 1.0 2.0 0.00 0.00 0.00 65
20260505030646 69 129 0.0 2.0 0.00 0.00 0.00 64
20260505030141 69 19 0.0 4.0 0.00 0.00 0.00 63
20260505025638 69 225 1.0 4.0 0.00 0.00 0.00 62
20260505025136 70 29 0.0 3.0 0.00 0.00 0.00 60
20260505024633 70 309 0.0 3.0 0.00 0.00 0.00 56
20260505024130 71 208 2.0 3.0 0.00 0.00 0.00 54
20260505023628 72 218 1.0 3.0 0.00 0.00 0.00 53
20260505023125 73 241 0.0 3.0 0.00 0.00 0.00 52
20260505022623 73 236 1.0 5.0 0.00 0.00 0.00 53
20260505022119 74 213 1.0 3.0 0.00 0.00 0.00 51
20260505021616 74 349 2.0 4.0 0.00 0.00 0.00 51
20260505021113 73 232 3.0 3.0 0.00 0.00 0.00 52
20260505020608 73 259 1.0 5.0 0.00 0.00 0.00 53
20260505020104 73 334 3.0 8.0 0.00 0.00 0.00 54
20260505015602 75 330 3.0 8.0 0.00 0.00 0.00 52
20260505015058 76 292 0.0 4.0 0.00 0.00 0.00 51
20260505014555 77 203 2.0 7.0 0.00 0.00 0.00 50
20260505014052 77 53 3.0 7.0 0.00 0.00 0.00 50
20260505013549 77 80 3.0 5.0 0.00 0.00 0.00 49
20260505013047 78 89 0.0 5.0 0.00 0.00 0.00 50
20260505012545 79 182 1.0 5.0 0.00 0.00 0.00 48
20260505012042 79 105 1.0 5.0 0.00 0.00 0.00 48
20260505011537 79 255 3.0 5.0 0.00 0.00 0.00 48
20260505011035 79 224 2.0 4.0 0.00 0.00 0.00 48
20260505010530 79 50 1.0 4.0 0.00 0.00 0.00 48
20260505010027 79 120 0.0 7.0 0.00 0.00 0.00 47
20260505005523 80 177 1.0 6.0 0.00 0.00 0.00 46
20260505005021 79 117 2.0 9.0 0.00 0.00 0.00 45
20260505004518 80 253 1.0 6.0 0.00 0.00 0.00 44
20260505004014 80 239 3.0 5.0 0.00 0.00 0.00 44
20260505003511 78 238 0.0 7.0 0.00 0.00 0.00 45
20260505003009 80 99 2.0 4.0 0.00 0.00 0.00 43
20260505002504 81 245 4.0 7.0 0.00 0.00 0.00 43
20260505002003 79 131 0.0 5.0 0.00 0.00 0.00 44
20260505001500 80 119 5.0 6.0 0.00 0.00 0.00 43
20260505000956 81 104 3.0 5.0 0.00 0.00 0.00 42
20260505000454 79 131 3.0 6.0 0.00 0.00 0.00 44
20260504235951 79 108 3.0 6.0 0.00 0.00 0.00 43
20260504235448 80 186 2.0 5.0 0.00 0.00 0.00 44
20260504234945 79 115 3.0 8.0 0.00 0.00 0.00 43
20260504234442 82 241 4.0 6.0 0.00 0.00 0.00 41
20260504233938 81 112 2.0 5.0 0.00 0.00 0.00 41
20260504233434 79 230 3.0 6.0 0.00 0.00 0.00 43
20260504232931 81 212 2.0 4.0 0.00 0.00 0.00 40
20260504232428 80 312 0.0 6.0 0.00 0.00 0.00 42
20260504231926 79 102 2.0 7.0 0.00 0.00 0.00 42
20260504231422 80 215 0.0 6.0 0.00 0.00 0.00 43
20260504230918 80 103 0.0 6.0 0.00 0.00 0.00 42
20260504230415 80 180 0.0 5.0 0.00 0.00 0.00 42
20260504225914 79 199 0.0 5.0 0.00 0.00 0.00 43
20260504225410 78 98 3.0 9.0 0.00 0.00 0.00 43
20260504224908 78 120 3.0 6.0 0.00 0.00 0.00 43
20260504224404 78 96 2.0 7.0 0.00 0.00 0.00 43
20260504223902 78 239 2.0 9.0 0.00 0.00 0.00 43
20260504223356 77 121 5.0 8.0 0.00 0.00 0.00 42
20260504222853 79 234 1.0 6.0 0.00 0.00 0.00 45
20260504222350 78 132 2.0 11.0 0.00 0.00 0.00 42
20260504221849 77 123 5.0 8.0 0.00 0.00 0.00 44
20260504221345 78 64 1.0 6.0 0.00 0.00 0.00 45
20260504220842 77 190 0.0 6.0 0.00 0.00 0.00 48
20260504220339 77 245 3.0 9.0 0.00 0.00 0.00 45
20260504215836 77 230 4.0 7.0 0.00 0.00 0.00 46
20260504215332 76 236 2.0 9.0 0.00 0.00 0.00 50
20260504214828 77 209 1.0 5.0 0.00 0.00 0.00 49
20260504214326 78 195 2.0 5.0 0.00 0.00 0.00 49
20260504213822 77 219 4.0 7.0 0.00 0.00 0.00 49
20260504213318 78 230 0.0 5.0 0.00 0.00 0.00 50
20260504212816 76 93 0.0 9.0 0.00 0.00 0.00 51
20260504212312 76 80 3.0 7.0 0.00 0.00 0.00 52
20260504211810 77 119 5.0 7.0 0.00 0.00 0.00 51
20260504211305 76 116 0.0 6.0 0.00 0.00 0.00 51
20260504210803 77 124 2.0 5.0 0.00 0.00 0.00 51
20260504210300 76 233 2.0 6.0 0.00 0.00 0.00 54
20260504205757 76 129 2.0 3.0 0.00 0.00 0.00 53
20260504205255 75 117 5.0 9.0 0.00 0.00 0.00 53
20260504204753 76 259 2.0 6.0 0.00 0.00 0.00 54
20260504204251 75 222 1.0 6.0 0.00 0.00 0.00 54
20260504203750 76 217 0.0 8.0 0.00 0.00 0.00 54
20260504203246 76 223 2.0 7.0 0.00 0.00 0.00 54
20260504202741 76 111 3.0 4.0 0.00 0.00 0.00 52
20260504202239 75 223 4.0 6.0 0.00 0.00 0.00 54
20260504201736 74 81 1.0 5.0 0.00 0.00 0.00 55
20260504201233 74 152 0.0 4.0 0.00 0.00 0.00 54
20260504200731 75 269 0.0 6.0 0.00 0.00 0.00 54
20260504200226 75 184 2.0 4.0 0.00 0.00 0.00 53
20260504195723 73 206 1.0 8.0 0.00 0.00 0.00 57
20260504195219 73 206 2.0 8.0 0.00 0.00 0.00 55
20260504194716 74 232 2.0 7.0 0.00 0.00 0.00 54
20260504194212 75 147 2.0 3.0 0.00 0.00 0.00 51
20260504193709 76 124 2.0 7.0 0.00 0.00 0.00 49
20260504193206 75 251 0.0 3.0 0.00 0.00 0.00 51
20260504192705 74 93 1.0 6.0 0.00 0.00 0.00 50
20260504192202 74 49 2.0 6.0 0.00 0.00 0.00 52
20260504191701 73 100 0.0 5.0 0.00 0.00 0.00 55
20260504191156 74 235 0.0 5.0 0.00 0.00 0.00 50
20260504190652 73 142 2.0 4.0 0.00 0.00 0.00 53
20260504190149 75 216 3.0 7.0 0.00 0.00 0.00 52
20260504185646 75 154 1.0 3.0 0.00 0.00 0.00 51
20260504185142 75 32 2.0 4.0 0.00 0.00 0.00 51
20260504184639 74 82 2.0 3.0 0.00 0.00 0.00 50
20260504184133 73 242 0.0 4.0 0.00 0.00 0.00 51
20260504183631 72 203 3.0 6.0 0.00 0.00 0.00 49
20260504183128 72 209 3.0 5.0 0.00 0.00 0.00 51
20260504182626 71 233 4.0 6.0 0.00 0.00 0.00 52
20260504182123 71 230 3.0 7.0 0.00 0.00 0.00 53